AHY7149 UDYZ-LCLK

Flight info

Callsign AHY7149
Flight time 1h 47m
Altitude 38000
Route N0470F380 INDUR N161 BIRZU UB374 YAVUZ UN161 ALVAR UB374 ERZ UW701 GAZ UB36 TUSYR B544 ALE W6 BAN R785 NIKAS M978 ALSUS R78 RUDER
Aircraft B763/H-VGDW/C

Departure

Time 2026-05-07 08:41
Airport Zvartnots International Airport (UDYZ)

Arrival

Time 2026-05-07 10:28
Airport Larnaca International Airport (LCLK)
Time Latitude Longitude Altitude Speed Heading
2026-05-07 08:15 40.15252 44.39624 2849 ft 0 kts 157°
2026-05-07 08:29 40.15254 44.39623 2848 ft 2 kts 156°
2026-05-07 08:29 40.15267 44.39613 2849 ft 2 kts 151°
2026-05-07 08:29 40.15281 44.39605 2849 ft 2 kts 159°
2026-05-07 08:30 40.15295 44.39598 2849 ft 2 kts 158°
2026-05-07 08:30 40.15309 44.39590 2849 ft 2 kts 157°
2026-05-07 08:30 40.15323 44.39583 2849 ft 2 kts 176°
2026-05-07 08:30 40.15338 44.39586 2849 ft 1 kts 202°
2026-05-07 08:31 40.15344 44.39589 2849 ft 1 kts 209°
2026-05-07 08:31 40.15346 44.39591 2849 ft 0 kts 207°
2026-05-07 08:33 40.15345 44.39590 2849 ft 1 kts 207°
2026-05-07 08:33 40.15306 44.39569 2849 ft 10 kts 200°
2026-05-07 08:33 40.15203 44.39552 2848 ft 17 kts 172°
2026-05-07 08:34 40.15101 44.39612 2848 ft 14 kts 139°
2026-05-07 08:34 40.15052 44.39704 2848 ft 3 kts 118°
2026-05-07 08:34 40.15036 44.39740 2848 ft 8 kts 126°
2026-05-07 08:35 40.14983 44.39817 2848 ft 12 kts 113°
2026-05-07 08:35 40.14976 44.39951 2848 ft 16 kts 89°
2026-05-07 08:35 40.14976 44.40125 2848 ft 21 kts 89°
2026-05-07 08:35 40.14977 44.40331 2848 ft 23 kts 89°
2026-05-07 08:36 40.14979 44.40540 2848 ft 21 kts 88°
2026-05-07 08:36 40.14982 44.40722 2848 ft 18 kts 89°
2026-05-07 08:36 40.14982 44.40880 2848 ft 15 kts 92°
2026-05-07 08:36 40.14980 44.41013 2848 ft 13 kts 89°
2026-05-07 08:37 40.14981 44.41122 2848 ft 10 kts 89°
2026-05-07 08:37 40.14983 44.41209 2848 ft 8 kts 88°
2026-05-07 08:37 40.14984 44.41281 2848 ft 7 kts 88°
2026-05-07 08:37 40.14985 44.41356 2848 ft 9 kts 88°
2026-05-07 08:38 40.14987 44.41461 2848 ft 11 kts 88°
2026-05-07 08:38 40.14990 44.41556 2848 ft 9 kts 88°
2026-05-07 08:38 40.14987 44.41633 2848 ft 8 kts 101°
2026-05-07 08:38 40.14960 44.41705 2848 ft 8 kts 133°
2026-05-07 08:39 40.14920 44.41748 2848 ft 6 kts 144°
2026-05-07 08:39 40.14884 44.41779 2848 ft 6 kts 147°
2026-05-07 08:39 40.14839 44.41816 2848 ft 8 kts 151°
2026-05-07 08:39 40.14774 44.41831 2848 ft 10 kts 192°
2026-05-07 08:40 40.14737 44.41777 2848 ft 6 kts 253°
2026-05-07 08:40 40.14734 44.41755 2848 ft 0 kts 261°
2026-05-07 08:40 40.14733 44.41747 2848 ft 7 kts 264°
2026-05-07 08:40 40.14731 44.41377 2848 ft 76 kts 270°
2026-05-07 08:41 40.14727 44.40380 2848 ft 142 kts 270°
2026-05-07 08:41 40.14733 44.38845 2975 ft 188 kts 271°
2026-05-07 08:41 40.14735 44.36977 3267 ft 225 kts 270°
2026-05-07 08:41 40.14704 44.34703 3515 ft 271 kts 268°
2026-05-07 08:42 40.14590 44.32030 3793 ft 317 kts 267°
2026-05-07 08:42 40.14458 44.29055 4754 ft 321 kts 267°
2026-05-07 08:42 40.14338 44.26392 6396 ft 295 kts 268°
2026-05-07 08:42 40.14225 44.23819 7880 ft 271 kts 267°
2026-05-07 08:43 40.14120 44.21395 8665 ft 271 kts 266°
2026-05-07 08:43 40.14011 44.18933 9364 ft 274 kts 266°
2026-05-07 08:43 40.13898 44.16421 10079 ft 275 kts 266°
2026-05-07 08:43 40.13782 44.13832 10325 ft 296 kts 265°
2026-05-07 08:44 40.13654 44.11025 10362 ft 324 kts 265°
2026-05-07 08:44 40.13514 44.07968 10647 ft 343 kts 265°
2026-05-07 08:44 40.13374 44.04823 11377 ft 349 kts 265°
2026-05-07 08:44 40.13229 44.01665 12140 ft 352 kts 264°
2026-05-07 08:45 40.13081 43.98456 12907 ft 355 kts 264°
2026-05-07 08:45 40.12930 43.95206 13650 ft 358 kts 264°
2026-05-07 08:45 40.12776 43.91914 14390 ft 361 kts 264°
2026-05-07 08:45 40.12623 43.88670 15115 ft 364 kts 264°
2026-05-07 08:46 40.12467 43.85362 15839 ft 367 kts 264°
2026-05-07 08:46 40.12308 43.82026 16544 ft 369 kts 264°
2026-05-07 08:46 40.12147 43.78659 17210 ft 373 kts 264°
2026-05-07 08:46 40.11984 43.75272 17853 ft 376 kts 264°
2026-05-07 08:47 40.11819 43.71874 18504 ft 379 kts 264°
2026-05-07 08:47 40.11652 43.68441 19175 ft 381 kts 264°
2026-05-07 08:47 40.11476 43.64937 19834 ft 383 kts 264°
2026-05-07 08:47 40.11297 43.61539 20441 ft 386 kts 264°
2026-05-07 08:48 40.11108 43.57993 21067 ft 388 kts 264°
2026-05-07 08:48 40.10921 43.54465 21654 ft 391 kts 264°
2026-05-07 08:48 40.10670 43.50980 22248 ft 392 kts 258°
2026-05-07 08:48 40.09965 43.47530 22795 ft 393 kts 248°
2026-05-07 08:49 40.08769 43.44352 23377 ft 393 kts 238°
2026-05-07 08:49 40.07109 43.41492 23877 ft 397 kts 227°
2026-05-07 08:49 40.05053 43.39082 24468 ft 398 kts 220°
2026-05-07 08:49 40.03000 43.36686 25028 ft 399 kts 227°
2026-05-07 08:50 40.01192 43.33958 25570 ft 400 kts 231°
2026-05-07 08:50 39.99509 43.31079 26161 ft 401 kts 233°
2026-05-07 08:50 39.97891 43.28136 26910 ft 398 kts 234°
2026-05-07 08:50 39.96308 43.25171 27402 ft 400 kts 235°
2026-05-07 08:51 39.94753 43.22211 27928 ft 401 kts 236°
2026-05-07 08:51 39.93193 43.19215 28450 ft 403 kts 236°
2026-05-07 08:51 39.91609 43.16162 29014 ft 403 kts 236°
2026-05-07 08:51 39.90057 43.13166 29532 ft 404 kts 236°
2026-05-07 08:52 39.88482 43.10125 30047 ft 405 kts 236°
2026-05-07 08:52 39.86914 43.07098 30440 ft 409 kts 236°
2026-05-07 08:52 39.85324 43.04030 30855 ft 411 kts 236°
2026-05-07 08:52 39.83714 43.00925 31217 ft 415 kts 236°
2026-05-07 08:53 39.82101 42.97816 31555 ft 418 kts 236°
2026-05-07 08:53 39.80470 42.94678 31938 ft 421 kts 236°
2026-05-07 08:53 39.78840 42.91544 32341 ft 422 kts 236°
2026-05-07 08:53 39.77186 42.88367 32791 ft 422 kts 236°
2026-05-07 08:54 39.75550 42.85228 33171 ft 422 kts 236°
2026-05-07 08:54 39.73915 42.82094 33545 ft 422 kts 236°
2026-05-07 08:54 39.72259 42.78921 33936 ft 422 kts 236°
2026-05-07 08:54 39.70642 42.75829 34284 ft 421 kts 236°
2026-05-07 08:55 39.68986 42.72665 34581 ft 422 kts 236°
2026-05-07 08:55 39.67350 42.69539 34928 ft 421 kts 236°
2026-05-07 08:55 39.65704 42.66400 35183 ft 421 kts 236°
2026-05-07 08:55 39.64058 42.63262 35435 ft 422 kts 236°
2026-05-07 08:56 39.62398 42.60104 35724 ft 421 kts 236°
2026-05-07 08:56 39.60750 42.56967 35925 ft 421 kts 236°
2026-05-07 08:56 39.59094 42.53820 36180 ft 421 kts 236°
2026-05-07 08:56 39.57453 42.50706 36385 ft 421 kts 236°
2026-05-07 08:57 39.55806 42.47582 36566 ft 421 kts 236°
2026-05-07 08:57 39.54149 42.44443 36731 ft 421 kts 236°
2026-05-07 08:57 39.52503 42.41327 36906 ft 421 kts 236°
2026-05-07 08:57 39.50842 42.38187 37022 ft 423 kts 236°
2026-05-07 08:58 39.49184 42.35055 37198 ft 422 kts 236°
2026-05-07 08:58 39.47539 42.31951 37353 ft 422 kts 236°
2026-05-07 08:58 39.45877 42.28818 37509 ft 422 kts 236°
2026-05-07 08:58 39.44216 42.25689 37656 ft 422 kts 236°
2026-05-07 08:59 39.42568 42.22589 37788 ft 423 kts 236°
2026-05-07 08:59 39.40888 42.19430 37901 ft 423 kts 236°
2026-05-07 08:59 39.39229 42.16316 38007 ft 423 kts 236°
2026-05-07 08:59 39.37587 42.13235 38129 ft 422 kts 236°
2026-05-07 09:00 39.34266 42.07014 38154 ft 420 kts 236°
2026-05-07 09:00 39.30979 42.00868 38155 ft 419 kts 236°
2026-05-07 09:01 39.27677 41.94707 38153 ft 417 kts 236°
2026-05-07 09:01 39.24401 41.88605 38152 ft 416 kts 236°
2026-05-07 09:02 39.21101 41.82470 38151 ft 415 kts 236°
2026-05-07 09:02 39.17854 41.76447 38151 ft 413 kts 236°
2026-05-07 09:03 39.14595 41.70410 38150 ft 411 kts 236°
2026-05-07 09:03 39.11344 41.64401 38149 ft 410 kts 236°
2026-05-07 09:04 39.08104 41.58423 38150 ft 408 kts 236°
2026-05-07 09:04 39.04865 41.52458 38148 ft 406 kts 236°
2026-05-07 09:05 39.01651 41.46550 38147 ft 404 kts 236°
2026-05-07 09:05 38.98433 41.40646 38146 ft 402 kts 236°
2026-05-07 09:06 38.95254 41.34824 38146 ft 399 kts 236°
2026-05-07 09:06 38.92072 41.29007 38153 ft 397 kts 236°
2026-05-07 09:07 38.88905 41.23227 38158 ft 395 kts 236°
2026-05-07 09:07 38.85755 41.17489 38157 ft 394 kts 236°
2026-05-07 09:08 38.82616 41.11782 38156 ft 392 kts 236°
2026-05-07 09:08 38.79496 41.06118 38156 ft 390 kts 236°
2026-05-07 09:09 38.76398 41.00503 38155 ft 388 kts 236°
2026-05-07 09:09 38.73298 40.94897 38154 ft 386 kts 236°
2026-05-07 09:10 38.70195 40.89294 38003 ft 388 kts 236°
2026-05-07 09:10 38.68631 40.86471 37633 ft 396 kts 236°
2026-05-07 09:10 38.67027 40.83581 37271 ft 400 kts 236°
2026-05-07 09:11 38.65435 40.80717 36902 ft 399 kts 236°
2026-05-07 09:11 38.63838 40.77844 36527 ft 397 kts 236°
2026-05-07 09:11 38.62248 40.74985 36154 ft 395 kts 236°
2026-05-07 09:11 38.60660 40.72135 35779 ft 395 kts 236°
2026-05-07 09:12 38.59057 40.69260 35404 ft 396 kts 236°
2026-05-07 09:12 38.57468 40.66412 35034 ft 398 kts 236°
2026-05-07 09:12 38.55868 40.63546 34662 ft 399 kts 236°
2026-05-07 09:12 38.54267 40.60682 34286 ft 397 kts 236°
2026-05-07 09:13 38.52667 40.57821 34142 ft 392 kts 236°
2026-05-07 09:13 38.51092 40.55009 34141 ft 394 kts 236°
2026-05-07 09:13 38.47861 40.49245 34139 ft 402 kts 236°
2026-05-07 09:14 38.44582 40.43405 34138 ft 410 kts 236°
2026-05-07 09:14 38.41269 40.37518 34135 ft 415 kts 236°
2026-05-07 09:15 38.37893 40.31530 34141 ft 414 kts 235°
2026-05-07 09:15 38.34550 40.25610 34133 ft 413 kts 235°
2026-05-07 09:16 38.31197 40.19682 34128 ft 413 kts 235°
2026-05-07 09:16 38.27840 40.13759 34121 ft 414 kts 235°
2026-05-07 09:17 38.24474 40.07832 34116 ft 413 kts 236°
2026-05-07 09:17 38.21127 40.01947 34117 ft 413 kts 236°
2026-05-07 09:18 38.17756 39.96032 34124 ft 414 kts 236°
2026-05-07 09:18 38.14477 39.90287 34126 ft 413 kts 236°
2026-05-07 09:19 38.11052 39.84297 34135 ft 414 kts 236°
2026-05-07 09:19 38.07679 39.78410 34135 ft 414 kts 235°
2026-05-07 09:20 38.04306 39.72535 34135 ft 414 kts 236°
2026-05-07 09:20 38.00909 39.66625 34133 ft 414 kts 236°
2026-05-07 09:21 37.97523 39.60749 34130 ft 413 kts 236°
2026-05-07 09:21 37.94148 39.54898 34133 ft 413 kts 236°
2026-05-07 09:22 37.90753 39.49024 34131 ft 413 kts 236°
2026-05-07 09:22 37.87377 39.43196 34136 ft 413 kts 236°
2026-05-07 09:23 37.83960 39.37306 34135 ft 413 kts 236°
2026-05-07 09:23 37.80552 39.31441 34146 ft 414 kts 235°
2026-05-07 09:24 37.77132 39.25567 34144 ft 414 kts 235°
2026-05-07 09:24 37.73746 39.19761 34143 ft 414 kts 235°
2026-05-07 09:25 37.70321 39.13898 34143 ft 415 kts 235°
2026-05-07 09:25 37.66898 39.08050 34142 ft 415 kts 235°
2026-05-07 09:26 37.63470 39.02203 34141 ft 415 kts 235°
2026-05-07 09:26 37.60046 38.96373 34141 ft 415 kts 236°
2026-05-07 09:27 37.56623 38.90556 34138 ft 415 kts 235°
2026-05-07 09:28 37.51461 38.81803 34138 ft 417 kts 236°
2026-05-07 09:28 37.48008 38.75959 34137 ft 416 kts 236°
2026-05-07 09:29 37.44548 38.70116 34137 ft 417 kts 236°
2026-05-07 09:29 37.41103 38.64306 34136 ft 417 kts 236°
2026-05-07 09:30 37.37643 38.58481 34135 ft 417 kts 236°
2026-05-07 09:30 37.34187 38.52673 34134 ft 417 kts 236°
2026-05-07 09:31 37.30707 38.46837 34134 ft 418 kts 236°
2026-05-07 09:31 37.27220 38.40998 34133 ft 418 kts 236°
2026-05-07 09:32 37.23733 38.35169 34133 ft 417 kts 236°
2026-05-07 09:32 37.20240 38.29342 34142 ft 417 kts 235°
2026-05-07 09:33 37.16771 38.23562 34141 ft 417 kts 235°
2026-05-07 09:33 37.13267 38.17736 34141 ft 417 kts 235°
2026-05-07 09:34 37.09801 38.11982 34140 ft 417 kts 235°
2026-05-07 09:34 37.06302 38.06184 34139 ft 417 kts 235°
2026-05-07 09:35 37.02792 38.00378 34139 ft 417 kts 235°
2026-05-07 09:35 36.99289 37.94593 34145 ft 422 kts 236°
2026-05-07 09:36 36.95748 37.88754 34136 ft 421 kts 236°
2026-05-07 09:36 36.92227 37.82960 34137 ft 421 kts 236°
2026-05-07 09:37 36.88697 37.77160 34139 ft 421 kts 236°
2026-05-07 09:37 36.85142 37.71331 34138 ft 421 kts 236°
2026-05-07 09:38 36.81599 37.65529 34137 ft 421 kts 236°
2026-05-07 09:38 36.78065 37.59753 34136 ft 421 kts 236°
2026-05-07 09:39 36.74505 37.53946 34136 ft 421 kts 236°
2026-05-07 09:39 36.70953 37.48160 34135 ft 421 kts 236°
2026-05-07 09:40 36.67383 37.42356 34135 ft 421 kts 236°
2026-05-07 09:40 36.63525 37.36868 34140 ft 425 kts 228°
2026-05-07 09:41 36.59262 37.31747 34151 ft 426 kts 227°
2026-05-07 09:41 36.54980 37.26693 34156 ft 426 kts 227°
2026-05-07 09:42 36.50668 37.21635 34163 ft 426 kts 227°
2026-05-07 09:42 36.46360 37.16600 34164 ft 426 kts 227°
2026-05-07 09:43 36.42030 37.11547 34154 ft 428 kts 227°
2026-05-07 09:43 36.37673 37.06472 34139 ft 428 kts 227°
2026-05-07 09:44 36.33332 37.01425 34128 ft 429 kts 227°
2026-05-07 09:44 36.28337 36.97268 34122 ft 440 kts 209°
2026-05-07 09:45 36.22344 36.95390 34116 ft 456 kts 191°
2026-05-07 09:45 36.16042 36.96025 34116 ft 472 kts 172°
2026-05-07 09:46 36.09801 36.98862 34118 ft 476 kts 168°
2026-05-07 09:46 36.03423 37.00133 34125 ft 458 kts 187°
2026-05-07 09:47 35.97276 36.98832 34126 ft 441 kts 205°
2026-05-07 09:47 35.92076 36.95232 34129 ft 428 kts 224°
2026-05-07 09:48 35.88264 36.89716 34136 ft 420 kts 243°
2026-05-07 09:48 35.86259 36.83044 34140 ft 416 kts 256°
2026-05-07 09:49 35.83810 36.76565 34142 ft 423 kts 238°
2026-05-07 09:49 35.80126 36.70927 34137 ft 426 kts 233°
2026-05-07 09:50 35.76180 36.65493 34136 ft 427 kts 231°
2026-05-07 09:50 35.72159 36.60128 34137 ft 428 kts 231°
2026-05-07 09:50 35.70131 36.57451 34122 ft 417 kts 231°
2026-05-07 09:51 35.68207 36.54919 34116 ft 400 kts 231°
2026-05-07 09:51 35.66338 36.52462 34116 ft 383 kts 231°
2026-05-07 09:51 35.64569 36.50140 34115 ft 366 kts 232°
2026-05-07 09:51 35.62883 36.47928 34113 ft 350 kts 232°
2026-05-07 09:52 35.61254 36.45792 34113 ft 336 kts 232°
2026-05-07 09:52 35.58054 36.41590 34135 ft 337 kts 232°
2026-05-07 09:53 35.54843 36.37387 34136 ft 342 kts 232°
2026-05-07 09:53 35.51566 36.33105 34142 ft 341 kts 231°
2026-05-07 09:54 35.48364 36.28930 34141 ft 334 kts 232°
2026-05-07 09:54 35.45150 36.24735 33872 ft 343 kts 232°
2026-05-07 09:54 35.43530 36.22627 33542 ft 341 kts 231°
2026-05-07 09:55 35.41918 36.20533 33197 ft 338 kts 231°
2026-05-07 09:55 35.40291 36.18416 32859 ft 339 kts 231°
2026-05-07 09:55 35.38671 36.16310 32518 ft 340 kts 231°
2026-05-07 09:55 35.37068 36.14228 32174 ft 342 kts 231°
2026-05-07 09:56 35.35437 36.12110 31820 ft 343 kts 231°
2026-05-07 09:56 35.33796 36.09983 31457 ft 341 kts 231°
2026-05-07 09:56 35.32179 36.07890 31090 ft 336 kts 231°
2026-05-07 09:56 35.30589 36.05831 30732 ft 331 kts 231°
2026-05-07 09:57 35.29009 36.03785 30380 ft 327 kts 231°
2026-05-07 09:57 35.27447 36.01762 30044 ft 329 kts 231°
2026-05-07 09:57 35.25868 35.99718 29695 ft 331 kts 231°
2026-05-07 09:57 35.24302 35.97674 29339 ft 334 kts 235°
2026-05-07 09:58 35.23060 35.95312 29004 ft 329 kts 251°
2026-05-07 09:58 35.22427 35.92634 28670 ft 327 kts 262°
2026-05-07 09:58 35.22015 35.89897 28299 ft 328 kts 262°
2026-05-07 09:58 35.21603 35.87170 27925 ft 329 kts 262°
2026-05-07 09:59 35.21192 35.84390 27554 ft 330 kts 262°
2026-05-07 09:59 35.20789 35.81638 27188 ft 332 kts 262°
2026-05-07 09:59 35.20385 35.78872 26861 ft 329 kts 262°
2026-05-07 09:59 35.19991 35.76180 26845 ft 314 kts 262°
2026-05-07 10:00 35.19609 35.73563 26403 ft 314 kts 262°
2026-05-07 10:00 35.19222 35.70898 25679 ft 322 kts 263°
2026-05-07 10:00 35.18836 35.68231 25192 ft 321 kts 263°
2026-05-07 10:00 35.18446 35.65549 24864 ft 316 kts 263°
2026-05-07 10:01 35.18066 35.62938 24535 ft 311 kts 263°
2026-05-07 10:01 35.17689 35.60354 24210 ft 307 kts 263°
2026-05-07 10:01 35.17313 35.57767 23892 ft 308 kts 263°
2026-05-07 10:01 35.16938 35.55206 23680 ft 302 kts 263°
2026-05-07 10:02 35.16576 35.52739 23603 ft 290 kts 263°
2026-05-07 10:02 35.16225 35.50340 23255 ft 287 kts 263°
2026-05-07 10:02 35.15876 35.47961 22931 ft 284 kts 263°
2026-05-07 10:02 35.15525 35.45570 22606 ft 281 kts 263°
2026-05-07 10:03 35.15184 35.43241 22296 ft 282 kts 263°
2026-05-07 10:03 35.14833 35.40858 21987 ft 284 kts 263°
2026-05-07 10:03 35.14488 35.38520 21678 ft 285 kts 263°
2026-05-07 10:03 35.14129 35.36087 21359 ft 285 kts 263°
2026-05-07 10:04 35.13772 35.33675 21047 ft 287 kts 262°
2026-05-07 10:04 35.13419 35.31296 20740 ft 285 kts 262°
2026-05-07 10:04 35.13061 35.28889 20423 ft 281 kts 262°
2026-05-07 10:04 35.12715 35.26561 20117 ft 278 kts 262°
2026-05-07 10:05 35.12371 35.24248 19816 ft 278 kts 262°
2026-05-07 10:05 35.12023 35.21903 19519 ft 278 kts 262°
2026-05-07 10:05 35.11675 35.19570 19221 ft 280 kts 262°
2026-05-07 10:05 35.11328 35.17248 18922 ft 279 kts 262°
2026-05-07 10:06 35.10978 35.14912 18613 ft 277 kts 262°
2026-05-07 10:06 35.10633 35.12609 18313 ft 275 kts 262°
2026-05-07 10:06 35.10288 35.10308 18019 ft 277 kts 262°
2026-05-07 10:06 35.09938 35.07981 17715 ft 275 kts 262°
2026-05-07 10:07 35.09599 35.05724 17417 ft 272 kts 262°
2026-05-07 10:07 35.09255 35.03445 17118 ft 269 kts 262°
2026-05-07 10:07 35.08921 35.01228 16827 ft 266 kts 262°
2026-05-07 10:07 35.08585 34.99004 16536 ft 264 kts 262°
2026-05-07 10:08 35.08254 34.96814 16250 ft 261 kts 262°
2026-05-07 10:08 35.07927 34.94656 15970 ft 260 kts 262°
2026-05-07 10:08 35.07601 34.92498 15696 ft 259 kts 262°
2026-05-07 10:08 35.07270 34.90322 15415 ft 259 kts 262°
2026-05-07 10:09 35.06945 34.88177 15141 ft 259 kts 262°
2026-05-07 10:09 35.06614 34.86005 14861 ft 258 kts 262°
2026-05-07 10:09 35.06287 34.83855 14583 ft 257 kts 262°
2026-05-07 10:09 35.05959 34.81706 14307 ft 257 kts 262°
2026-05-07 10:10 35.05634 34.79577 14032 ft 257 kts 262°
2026-05-07 10:10 35.05304 34.77422 13754 ft 255 kts 262°
2026-05-07 10:10 35.04982 34.75311 13481 ft 255 kts 262°
2026-05-07 10:10 35.04656 34.73191 13199 ft 254 kts 262°
2026-05-07 10:11 35.04330 34.71066 12917 ft 254 kts 262°
2026-05-07 10:11 35.04002 34.68931 12632 ft 253 kts 262°
2026-05-07 10:11 35.03680 34.66840 12352 ft 252 kts 262°
2026-05-07 10:11 35.03359 34.64735 12070 ft 252 kts 262°
2026-05-07 10:12 35.03043 34.62650 11836 ft 251 kts 262°
2026-05-07 10:12 35.02723 34.60534 11604 ft 251 kts 262°
2026-05-07 10:12 35.02403 34.58428 11372 ft 252 kts 262°
2026-05-07 10:12 35.02083 34.56321 11140 ft 252 kts 261°
2026-05-07 10:13 35.01763 34.54224 10910 ft 251 kts 261°
2026-05-07 10:13 35.01445 34.52133 10682 ft 251 kts 261°
2026-05-07 10:13 35.01124 34.50025 10451 ft 252 kts 261°
2026-05-07 10:13 35.00803 34.47928 10222 ft 252 kts 261°
2026-05-07 10:14 35.00485 34.45844 9997 ft 251 kts 261°
2026-05-07 10:14 35.00163 34.43745 9770 ft 252 kts 261°
2026-05-07 10:14 34.99840 34.41635 9540 ft 252 kts 261°
2026-05-07 10:14 34.99514 34.39510 9311 ft 251 kts 261°
2026-05-07 10:15 34.99193 34.37423 9086 ft 251 kts 261°
2026-05-07 10:15 34.98869 34.35319 8740 ft 256 kts 261°
2026-05-07 10:15 34.98531 34.33126 8308 ft 261 kts 260°
2026-05-07 10:15 34.98203 34.31002 7908 ft 251 kts 260°
2026-05-07 10:16 34.97882 34.28921 7521 ft 246 kts 260°
2026-05-07 10:16 34.97565 34.26870 7149 ft 244 kts 260°
2026-05-07 10:16 34.97251 34.24842 6828 ft 241 kts 260°
2026-05-07 10:16 34.96937 34.22818 6584 ft 241 kts 260°
2026-05-07 10:17 34.96624 34.20799 6337 ft 242 kts 260°
2026-05-07 10:17 34.96312 34.18785 6120 ft 242 kts 260°
2026-05-07 10:17 34.95998 34.16768 5901 ft 237 kts 260°
2026-05-07 10:17 34.95694 34.14824 5661 ft 231 kts 261°
2026-05-07 10:18 34.95396 34.12904 5398 ft 226 kts 260°
2026-05-07 10:18 34.95106 34.11053 5147 ft 222 kts 261°
2026-05-07 10:18 34.94819 34.09225 4934 ft 214 kts 260°
2026-05-07 10:18 34.94545 34.07481 4770 ft 199 kts 260°
2026-05-07 10:19 34.94292 34.05873 4545 ft 188 kts 260°
2026-05-07 10:19 34.94056 34.04375 4361 ft 174 kts 261°
2026-05-07 10:19 34.93829 34.02931 4150 ft 173 kts 260°
2026-05-07 10:19 34.93605 34.01502 3948 ft 165 kts 260°
2026-05-07 10:20 34.93388 34.00121 3741 ft 165 kts 260°
2026-05-07 10:20 34.93171 33.98753 3537 ft 165 kts 260°
2026-05-07 10:20 34.92952 33.97360 3340 ft 166 kts 260°
2026-05-07 10:20 34.92738 33.96009 3136 ft 163 kts 260°
2026-05-07 10:21 34.92588 33.94630 2930 ft 163 kts 276°
2026-05-07 10:21 34.92870 33.93316 2745 ft 159 kts 290°
2026-05-07 10:21 34.93229 33.92029 2623 ft 161 kts 289°
2026-05-07 10:21 34.93590 33.90718 2478 ft 162 kts 289°
2026-05-07 10:22 34.93953 33.89418 2223 ft 159 kts 290°
2026-05-07 10:22 34.94314 33.88134 1968 ft 160 kts 290°
2026-05-07 10:22 34.94677 33.86847 1716 ft 159 kts 289°
2026-05-07 10:22 34.95038 33.85572 1561 ft 159 kts 288°
2026-05-07 10:23 34.95400 33.84291 1487 ft 159 kts 288°
2026-05-07 10:23 34.95761 33.83012 1495 ft 160 kts 289°
2026-05-07 10:23 34.96140 33.81708 1491 ft 161 kts 288°
2026-05-07 10:23 34.96511 33.80431 1487 ft 160 kts 289°
2026-05-07 10:24 34.96886 33.79141 1491 ft 159 kts 288°
2026-05-07 10:24 34.97255 33.77871 1491 ft 159 kts 288°
2026-05-07 10:24 34.97624 33.76581 1481 ft 164 kts 285°
2026-05-07 10:24 34.97677 33.75223 1483 ft 160 kts 253°
2026-05-07 10:25 34.97123 33.74151 1480 ft 143 kts 219°
2026-05-07 10:25 34.96360 33.73310 1510 ft 147 kts 220°
2026-05-07 10:25 34.95633 33.72452 1476 ft 143 kts 222°
2026-05-07 10:25 34.94929 33.71608 1489 ft 142 kts 221°
2026-05-07 10:26 34.94192 33.70719 1518 ft 150 kts 223°
2026-05-07 10:26 34.93441 33.69806 1366 ft 151 kts 223°
2026-05-07 10:26 34.92728 33.68932 1164 ft 145 kts 222°
2026-05-07 10:26 34.91974 33.68015 1018 ft 154 kts 222°
2026-05-07 10:27 34.91245 33.67121 808 ft 147 kts 222°
2026-05-07 10:27 34.90492 33.66203 652 ft 154 kts 222°
2026-05-07 10:27 34.89758 33.65308 443 ft 145 kts 222°
2026-05-07 10:27 34.89058 33.64439 200 ft 141 kts 223°
2026-05-07 10:28 34.88352 33.63581 50 ft 149 kts 222°
2026-05-07 10:28 34.87621 33.62693 18 ft 139 kts 222°
2026-05-07 10:28 34.87103 33.62069 16 ft 65 kts 227°
2026-05-07 10:28 34.86980 33.61825 16 ft 9 kts 252°
2026-05-07 10:29 34.86963 33.61753 16 ft 8 kts 254°
2026-05-07 10:29 34.86959 33.61738 16 ft 0 kts 254°
2026-05-07 10:29 34.86959 33.61737 16 ft 0 kts 254°
2026-05-07 10:30 34.86939 33.61652 16 ft 9 kts 254°
2026-05-07 10:30 34.86921 33.61577 16 ft 8 kts 255°
2026-05-07 10:30 34.86904 33.61500 16 ft 9 kts 255°
2026-05-07 10:30 34.86883 33.61419 16 ft 9 kts 265°
2026-05-07 10:31 34.86882 33.61336 16 ft 9 kts 256°
2026-05-07 10:31 34.86863 33.61270 16 ft 6 kts 233°
2026-05-07 10:31 34.86835 33.61235 16 ft 4 kts 243°
2026-05-07 10:31 34.86835 33.61211 16 ft 1 kts 297°
2026-05-07 10:32 34.86841 33.61202 16 ft 2 kts 312°
2026-05-07 10:32 34.86857 33.61181 16 ft 3 kts 316°
2026-05-07 10:32 34.86869 33.61167 16 ft 0 kts 316°